Voltar ao catálogo

YAMAL 401

AtivoComunicaçõesGEO
NORAD 40345·PAYLOAD·🇷🇺 Russia

Lançado Dec 15, 2014 de Baikonur Cosmodrome

Loading…

TLE

AtualizadoSource: Space-Track

Época: Sep 14, 2026, 14:13 UTC

1 40345U 14082A   26257.59295442 -.00000236  00000-0  00000-0 0  9995
2 40345   0.0214 216.0816 0000486 354.6952  86.1971  1.00269271 42816

Acompanhe YAMAL 401 em tempo real com AllMySat

Download on the App Store